User: anonymous   Login
Location: Newark
(33.6439°N, 114.9881°W)
Time: 09:22:26
(UTC+00:00)
Language:

Transit 2A Rocket - Orbit

View from above orbital plane
View from above orbital plane
View from above satellite
View from above satellite

Ground track
Ground track

The orbit data is extracted from the following two-line orbital elements,

1    47U 60007C   20222.82511476 -.00000054  00000-0  13292-4 0  9997
2    47  66.6668  12.2910 0235420 264.3840  93.0377 14.42095901142819
Epoch (UTC): 09 August 2020 19:48:09
Eccentricity: 0.0235420
inclination: 66.6668°
perigee height: 584 km
apogee height: 919 km
right ascension of ascending node: 12.2910°
argument of perigee: 264.3840°
revolutions per day: 14.42095901
mean anomaly at epoch: 93.0377°
orbit number at epoch: 14281

The dashed part of the orbit path shows where the satellite is in the earth's shadow,  

DLR